Location: Foligno
(42.9600°N, 12.7050°E)
Time: 22:39:26
(UTC+02:00)

ISS - Pass Details

Date: 19 July 2018
Orbit: 402 x 408 km, 51.6° (Epoch: 22 July)

Event Time Altitude Azimuth Distance (km) Brightness Sun altitude
Exits shadow 01:30:31 - 293° (WNW) 1,994 -0.1 -26.1°
Reaches altitude 10° 01:32:08 10° 307° (NW) 1,467 -0.6 -26.0°
Maximum altitude 01:34:31 18° 354° (N) 1,066 -0.9 -26.0°
Drops below altitude 10° 01:36:55 10° 41° (NE) 1,470 -0.3 -26.0°
Sets 01:39:27 0° 61° (ENE) 2,333 0.5 -25.9°
